Showing default

OSCAR 30, 15935

Orbit data source: Space-Track

OSCAR 30, 15935 is a payload satellite owned by USN NAVAIR (US) in LEO that was launched on Sat, 03 Aug 1985 UTC via an SCOUT G-1 launch vehicle from the Air Force Western Test Range (AFWTR). Payload-class satellites include a variety of spacecraft equipped with specific instruments for various scientific and technological missions. These include communications satellites like Starlink; space stations such as the ISS; scientific satellites like the Hubble; Earth observation satellites from companies like Planet Labs, Umbra, and HawkEye 360; GPS; miniature CubeSats for education and research; and military/defense satellites.

Loading next visibility...
Identifier
15935, 1985-066A
Orbit
LEO
Country
Flag of USUS
Related business
Manufacturer
RCA/East Windsor
Mission
Spacecraft
Bus & Motor
TRANSIT 5, Unknown motor
Mass
66 kg wet, 66 kg dry
Launch date (UTC)
1985-08-03 (41 years ago)
Launch vehicle
SCOUT G-1
Launch site
Air Force Western Test Range (AFWTR)
Object type
Payload
Rocket body
Debris
Shape & HBR
Unknown
Radar Cross Section
Medium (>0.1 m² and <1 m²)

Expand to show TLE details & history
Last TLE update: 2 days ago

TLE from 2 days ago
0 OSCAR 30
1 15935U 85066A   26171.37267087  .00000059  00000-0  93465-4 0  9990
2 15935  90.1570 102.8032 0165640 268.7288 212.4688 13.36112038989854
Epoch: 2026-06-20T08:56Z
TLE epoch observation values (Epoch: 2026-06-20T08:56:38.763Z)
Latitude
59.89119°
Longitude
-119.67716°
Altitude
1,239.493 km
Speed
7.189 km/s
True Right ascension
18h 52m 17s
True Declination
59° 45' 04"
Sunlit
Object was in daylight at epoch
Visualization orbit readout
Latitude
Unknown
Longitude
Unknown
Altitude
Unknown
Speed
Unknown
Apparent Right ascension
Unknown
Apparent Declination
Unknown
Sunlit
N/A
Visualization observer readout
Local Sidereal Time
23:07:46
Azimuth
Unknown
Elevation
Unknown
Doppler factor
Unknown
Orbital elements
Apogee altitude
1,245.08 km
Perigee altitude
996.653 km
Semi-major axis
7,499.003 km
Eccentricity
0.01656
Inclination
90.157°
RAAN
102.8032°
Arg. of periapsis
268.7288°
True anomaly
211.46738°
Mean anomaly
212.4688°
Eccentric anomaly
211.96635°
Mean motion
3.34224 °/min
Orbital period
107.71 mins
BSTAR
0.000093465
Loading maneuver chart data...
Computing Atmospheric mass density...
Loading historical data...
Loading historical data...
Loading historical data...
Loading historical data...
Loading historical data...
Loading historical data...
Loading historical data...

Documentation

Showing up to 5 results
|